Terug naar catalogus

DELTA 1 DEB

ActiefLEO
NORAD 14473·DEBRIS·🇺🇸 United States

Gelanceerd Nov 6, 1973 vanaf Vandenberg Space Force Base

Loading…

Volgende Passages (komende 24 uur)

TLE

VersSource: Space-Track

Epoch: Sep 14, 2026, 06:52 UTC

1 14473U 73086GQ  26257.28630523  .00002035  00000-0  13714-1 0  9991
2 14473 102.5303  24.1149 0233804 238.1739 150.5914 12.42537637945899

Volg DELTA 1 DEB in realtime met AllMySat

Download on the App Store